Terug naar catalogus

IRIDIUM 33 DEB

ActiefPO
NORAD 34652·DEBRIS·🇺🇸 United States

Gelanceerd Sep 14, 1997 vanaf Baikonur Cosmodrome

Loading…

Volgende Passages (komende 24 uur)

TLE

VersSource: Space-Track

Epoch: Sep 14, 2026, 08:37 UTC

1 34652U 97051KD  26257.35967192  .00002753  00000-0  51661-3 0  9995
2 34652  86.3316 217.0294 0030412  74.8492  76.6577 14.64100210925146

Volg IRIDIUM 33 DEB in realtime met AllMySat

Download on the App Store